| time (UTC) | temp F | wind direction | speed MPH | gust MPH | rain 1hr in | rain 24hr in | rain mn in | humidity % | barometer mb |
| 20260507060017 | 50 | 284 | 1.0 | 4.0 | 0.00 | 0.23 | 0.23 | 3 | 1005.8 |
| 20260507054545 | 50 | 271 | 0.0 | 3.0 | 0.00 | 0.23 | 0.23 | 100 | 1005.8 |
| 20260507053040 | 51 | 290 | 1.0 | 3.0 | 0.00 | 0.23 | 0.23 | 100 | 1005.9 |
| 20260507051535 | 51 | 276 | 0.0 | 2.0 | 0.00 | 0.23 | 0.23 | 100 | 1005.5 |
| 20260507050013 | 52 | 262 | 0.0 | 4.0 | 0.00 | 0.23 | 0.23 | 100 | 1005.3 |
| 20260507044540 | 52 | 288 | 0.0 | 4.0 | 0.00 | 0.23 | 0.23 | 100 | 1005.7 |
| 20260507043038 | 53 | 285 | 1.0 | 6.0 | 0.00 | 0.23 | 0.23 | 100 | 1005.6 |
| 20260507041546 | 53 | 279 | 0.0 | 2.0 | 0.00 | 0.23 | 0.23 | 100 | 1005.3 |
| 20260507040008 | 54 | 288 | 1.0 | 3.0 | 0.00 | 0.23 | 0.23 | 100 | 1005.2 |
| 20260507034549 | 55 | 262 | 0.0 | 6.0 | 0.00 | 0.23 | 0.23 | 2 | 1004.8 |
| 20260507033012 | 56 | 305 | 2.0 | 6.0 | 0.00 | 0.23 | 0.23 | 100 | 1005.0 |
| 20260507031546 | 57 | 300 | 0.0 | 5.0 | 0.00 | 0.23 | 0.23 | 100 | 1004.9 |
| 20260507030005 | 59 | 277 | 1.0 | 4.0 | 0.00 | 0.23 | 0.23 | 100 | 1004.6 |
| 20260507024544 | 59 | 288 | 0.0 | 4.0 | 0.00 | 0.23 | 0.23 | 100 | 1004.4 |
| 20260507023005 | 59 | 248 | 0.0 | 3.0 | 0.00 | 0.23 | 0.23 | 100 | 1004.2 |
| 20260507021552 | 59 | 250 | 0.0 | 2.0 | 0.00 | 0.23 | 0.23 | 100 | 1004.2 |
| 20260507020044 | 59 | 266 | 2.0 | 5.0 | 0.00 | 0.23 | 0.23 | 100 | 1004.4 |
| 20260507014553 | 59 | 284 | 1.0 | 4.0 | 0.00 | 0.23 | 0.23 | 100 | 1004.5 |
| 20260507013038 | 59 | 240 | 0.0 | 3.0 | 0.00 | 0.23 | 0.23 | 100 | 1004.6 |
| 20260507011531 | 59 | 101 | 2.0 | 4.0 | 0.00 | 0.23 | 0.23 | 100 | 1004.7 |
| 20260507010013 | 59 | 225 | 0.0 | 4.0 | 0.00 | 0.23 | 0.23 | 100 | 1004.6 |
| 20260507004549 | 59 | 233 | 1.0 | 6.0 | 0.00 | 0.23 | 0.23 | 100 | 1004.6 |
| 20260507003026 | 59 | 249 | 1.0 | 4.0 | 0.01 | 0.23 | 0.23 | 100 | 1004.6 |
| 20260507001607 | 59 | 210 | 0.0 | 5.0 | 0.01 | 0.23 | 0.23 | 100 | 1004.5 |
| 20260507000030 | 59 | 224 | 0.0 | 5.0 | 0.01 | 0.23 | 0.23 | 100 | 1004.4 |
| 20260506234547 | 59 | 233 | 1.0 | 5.0 | 0.01 | 0.23 | 0.23 | 100 | 1004.4 |
| 20260506233024 | 59 | 224 | 1.0 | 4.0 | 0.00 | 0.22 | 0.22 | 100 | 1004.3 |
| 20260506231602 | 59 | 152 | 1.0 | 5.0 | 0.00 | 0.22 | 0.22 | 100 | 1004.6 |
| 20260506230026 | 59 | 210 | 1.0 | 7.0 | 0.01 | 0.22 | 0.22 | 100 | 1004.6 |
| 20260506224504 | 60 | 268 | 1.0 | 8.0 | 0.03 | 0.22 | 0.22 | 100 | 1004.6 |
| 20260506223026 | 60 | 199 | 2.0 | 6.0 | 0.03 | 0.22 | 0.22 | 100 | 1004.6 |
| 20260506221510 | 60 | 105 | 2.0 | 5.0 | 0.05 | 0.22 | 0.22 | 100 | 1004.7 |
| 20260506220005 | 60 | 230 | 3.0 | 9.0 | 0.04 | 0.20 | 0.20 | 100 | 1005.0 |
| 20260506214610 | 60 | 160 | 1.0 | 5.0 | 0.05 | 0.19 | 0.19 | 100 | 1005.1 |
| 20260506213021 | 60 | 229 | 3.0 | 8.0 | 0.07 | 0.19 | 0.19 | 100 | 1005.1 |
| 20260506211558 | 60 | 118 | 2.0 | 11.0 | 0.07 | 0.17 | 0.17 | 100 | 1005.5 |
| 20260506210018 | 61 | 118 | 1.0 | 7.0 | 0.08 | 0.16 | 0.16 | 100 | 1005.2 |
| 20260506204506 | 61 | 136 | 0.0 | 3.0 | 0.06 | 0.14 | 0.14 | 100 | 1005.5 |
| 20260506203005 | 61 | 185 | 0.0 | 5.0 | 0.04 | 0.11 | 0.11 | 100 | 1005.6 |
| 20260506201507 | 61 | 146 | 0.0 | 5.0 | 0.04 | 0.10 | 0.10 | 100 | 1005.5 |
| 20260506200120 | 62 | 233 | 0.0 | 3.0 | 0.03 | 0.08 | 0.08 | 100 | 1005.3 |
| 20260506194511 | 62 | 132 | 0.0 | 3.0 | 0.05 | 0.08 | 0.08 | 100 | 1005.6 |
| 20260506193046 | 62 | 129 | 0.0 | 1.0 | 0.05 | 0.07 | 0.07 | 100 | 1005.7 |
| 20260506191506 | 62 | 281 | 0.0 | 1.0 | 0.06 | 0.06 | 0.06 | 100 | 1005.9 |
| 20260506190045 | 63 | 288 | 0.0 | 1.0 | 0.05 | 0.05 | 0.05 | 100 | 1006.1 |
| 20260506184504 | 64 | 296 | 0.0 | 2.0 | 0.03 | 0.03 | 0.03 | 100 | 1006.2 |
| 20260506183049 | 65 | 269 | 0.0 | 2.0 | 0.02 | 0.02 | 0.02 | 28 | 1006.0 |
| 20260506181547 | 70 | 243 | 4.0 | 9.0 | 0.00 | 0.00 | 0.00 | 62 | 1006.1 |
| 20260506180051 | 72 | 271 | 5.0 | 15.0 | 0.00 | 0.00 | 0.00 | 57 | 1005.5 |
| 20260506174529 | 72 | 238 | 2.0 | 13.0 | 0.00 | 0.00 | 0.00 | 57 | 1005.5 |
| 20260506173011 | 71 | 285 | 3.0 | 7.0 | 0.00 | 0.00 | 0.00 | 58 | 1005.8 |
| 20260506171516 | 72 | 233 | 1.0 | 10.0 | 0.00 | 0.00 | 0.00 | 60 | 1005.9 |
| 20260506170051 | 71 | 237 | 2.0 | 8.0 | 0.00 | 0.00 | 0.00 | 60 | 1006.1 |
| 20260506164536 | 71 | 226 | 1.0 | 7.0 | 0.00 | 0.00 | 0.00 | 61 | 1006.3 |
| 20260506163100 | 71 | 316 | 2.0 | 8.0 | 0.00 | 0.00 | 0.00 | 59 | 1006.5 |
| 20260506161547 | 71 | 276 | 3.0 | 11.0 | 0.00 | 0.00 | 0.00 | 59 | 1006.8 |
| 20260506160108 | 70 | 243 | 1.0 | 6.0 | 0.00 | 0.00 | 0.00 | 62 | 1007.3 |
| 20260506154537 | 70 | 231 | 1.0 | 9.0 | 0.00 | 0.00 | 0.00 | 62 | 1007.6 |
| 20260506153002 | 70 | 275 | 5.0 | 10.0 | 0.00 | 0.00 | 0.00 | 62 | 1007.8 |
| 20260506151543 | 69 | 213 | 2.0 | 6.0 | 0.00 | 0.00 | 0.00 | 63 | 1007.6 |
| 20260506150026 | 68 | 203 | 2.0 | 10.0 | 0.00 | 0.00 | 0.00 | 63 | 1007.9 |
| 20260506144547 | 68 | 248 | 3.0 | 11.0 | 0.00 | 0.00 | 0.00 | 63 | 1007.7 |
| 20260506143029 | 68 | 276 | 2.0 | 9.0 | 0.00 | 0.00 | 0.00 | 62 | 1007.8 |
| 20260506141553 | 67 | 185 | 1.0 | 6.0 | 0.00 | 0.00 | 0.00 | 62 | 1007.7 |
| 20260506140032 | 66 | 278 | 5.0 | 10.0 | 0.00 | 0.00 | 0.00 | 61 | 1007.8 |
| 20260506134617 | 66 | 238 | 1.0 | 12.0 | 0.00 | 0.00 | 0.00 | 61 | 1008.0 |
| 20260506133038 | 66 | 290 | 3.0 | 6.0 | 0.00 | 0.00 | 0.00 | 61 | 1008.1 |
| 20260506131527 | 66 | 277 | 2.0 | 6.0 | 0.00 | 0.00 | 0.00 | 60 | 1008.1 |
| 20260506130022 | 65 | 295 | 1.0 | 8.0 | 0.00 | 0.00 | 0.00 | 60 | 1008.2 |
| 20260506124512 | 65 | 262 | 1.0 | 6.0 | 0.00 | 0.00 | 0.00 | 60 | 1008.0 |
| 20260506123007 | 65 | 226 | 2.0 | 6.0 | 0.00 | 0.00 | 0.00 | 60 | 1008.3 |
| 20260506121507 | 64 | 227 | 1.0 | 3.0 | 0.00 | 0.00 | 0.00 | 55 | 1008.3 |
| 20260506120044 | 63 | 279 | 1.0 | 4.0 | 0.00 | 0.00 | 0.00 | 55 | 1008.6 |
| 20260506114533 | 63 | 289 | 1.0 | 8.0 | 0.00 | 0.00 | 0.00 | 55 | 1008.7 |
| 20260506113050 | 62 | 253 | 1.0 | 5.0 | 0.00 | 0.00 | 0.00 | 54 | 1008.6 |
| 20260506111531 | 62 | 208 | 0.0 | 5.0 | 0.00 | 0.00 | 0.00 | 53 | 1008.8 |
| 20260506110018 | 61 | 162 | 2.0 | 5.0 | 0.00 | 0.00 | 0.00 | 53 | 1008.7 |
| 20260506104515 | 61 | 225 | 2.0 | 7.0 | 0.00 | 0.00 | 0.00 | 53 | 1008.8 |
| 20260506103104 | 61 | 268 | 0.0 | 3.0 | 0.00 | 0.00 | 0.00 | 53 | 1008.8 |
| 20260506101542 | 61 | 116 | 1.0 | 5.0 | 0.00 | 0.00 | 0.00 | 53 | 1008.7 |
| 20260506100042 | 61 | 288 | 1.0 | 5.0 | 0.00 | 0.00 | 0.00 | 54 | 1008.7 |
| 20260506094540 | 61 | 291 | 2.0 | 6.0 | 0.00 | 0.00 | 0.00 | 55 | 1008.6 |
| 20260506093021 | 61 | 279 | 3.0 | 6.0 | 0.00 | 0.00 | 0.00 | 56 | 1008.7 |
| 20260506091544 | 61 | 271 | 0.0 | 4.0 | 0.00 | 0.00 | 0.00 | 57 | 1008.5 |
| 20260506090026 | 62 | 253 | 0.0 | 3.0 | 0.00 | 0.00 | 0.00 | 58 | 1008.4 |
| 20260506084604 | 62 | 254 | 1.0 | 5.0 | 0.00 | 0.00 | 0.00 | 60 | 1008.5 |
| 20260506083114 | 62 | 280 | 2.0 | 4.0 | 0.00 | 0.00 | 0.00 | 61 | 1008.5 |
| 20260506081552 | 62 | 216 | 0.0 | 3.0 | 0.00 | 0.00 | 0.00 | 62 | 1008.4 |
| 20260506073036 | 63 | 277 | 1.0 | 5.0 | 0.00 | 0.00 | 0.00 | 63 | 1008.0 |
| 20260506071507 | 63 | 280 | 1.0 | 6.0 | 0.00 | 0.00 | 0.00 | 63 | 1008.0 |
| 20260506061505 | 63 | 240 | 1.0 | 8.0 | 0.00 | 0.00 | 0.00 | 63 | 1007.9 |